Weather History for Staples, MN

Change the Weather History Date:

Saturday, February 23, 2013

  Actual Average Record
Temperature  
Mean Temperature 12 °F -  
Max Temperature 24 °F 26 °F 48 °F (1998)
Min Temperature 1 °F 10 °F -11 °F (2009)
Degree Days  
Heating Degree Days 52    
Moisture  
Dew Point 15 °F    
Average Humidity 93    
Maximum Humidity 100    
Minimum Humidity 80    
Precipitation  
Precipitation 0.00 in - - ()
Sea Level Pressure  
Sea Level Pressure 29.84 in    
Wind  
Wind Speed 2 mph (West)    
Max Wind Speed 8 mph    
Max Gust Speed -    
Visibility 6 miles    
Events Fog , Snow    
Averages and records for this station are not official NWS values.
T = Trace of Precipitation, MM = Missing Value Source: NWS Daily Summary

Daily Weather History Graph

Daily Weather History Graph

Search for Another Location

Airport:

Trip Planner

Search our weather history database for the weather conditions in past years. The results will help you decide how hot, cold, wet, or windy it might be!

Date:

Astronomy

Feb. 23, 2013 Rise Set
Actual Time 7:08 AM CST 5:57 PM CST
Civil Twilight 6:38 AM CST 6:27 PM CST
Nautical Twilight 6:03 AM CST 7:02 PM CST
Astronomical Twilight 5:28 AM CST 7:37 PM CST
Moon 4:04 PM CST (2/23) 5:36 AM CST (2/23)
Length of Visible Light 11h 49m
Length of Day
10h 48m
Waxing Gibbous, 95% of the Moon is Illuminated
Feb 23
Waxing Gibbous
Feb 25
Full
Mar 4
Last Quarter
Mar 11
New
Mar 19
First Quarter

Hourly Weather History & Observations

Time (CST) Temp. Windchill Dew Point Humidity Pressure Visibility Wind Dir Wind Speed Gust Speed Precip Events Conditions
12:13 AM 19.4 °F - 17.6 °F 93% 29.83 in 10.0 mi Calm Calm - N/A   Overcast
12:33 AM 19.4 °F - 17.6 °F 93% 29.83 in 10.0 mi Calm Calm - N/A Snow Light Snow
12:54 AM 17.6 °F - 17.6 °F 100% 29.83 in 10.0 mi Calm Calm - N/A Snow Light Snow
1:13 AM 15.8 °F - 15.8 °F 100% 29.83 in 10.0 mi Calm Calm - N/A Snow Light Snow
1:33 AM 15.8 °F 8.6 °F 15.8 °F 100% 29.83 in 10.0 mi West 4.6 mph - N/A   Overcast
1:53 AM 17.6 °F - 15.8 °F 93% 29.82 in 10.0 mi Calm Calm - N/A   Overcast
2:13 AM 15.8 °F - 15.8 °F 100% 29.82 in 10.0 mi Calm Calm - N/A   Overcast
2:34 AM 15.8 °F 6.1 °F 15.8 °F 100% 29.82 in 10.0 mi West 6.9 mph - N/A   Overcast
2:53 AM 15.8 °F 5.1 °F 15.8 °F 100% 29.82 in 10.0 mi West 8.1 mph - N/A   Overcast
3:13 AM 15.8 °F - 15.8 °F 100% 29.82 in 10.0 mi Calm Calm - N/A   Overcast
3:34 AM 15.8 °F - 15.8 °F 100% 29.82 in 10.0 mi Calm Calm - N/A   Overcast
3:53 AM 17.6 °F 9.3 °F 15.8 °F 93% 29.82 in 10.0 mi West 5.8 mph - N/A   Overcast
4:13 AM 17.6 °F 8.2 °F 17.6 °F 100% 29.82 in 7.0 mi West 6.9 mph - N/A   Overcast
4:34 AM 17.6 °F 10.7 °F 17.6 °F 100% 29.82 in 5.0 mi WNW 4.6 mph - N/A Snow Light Snow
4:53 AM 17.6 °F 12.3 °F 17.6 °F 100% 29.82 in 3.0 mi WNW 3.5 mph - N/A   Overcast
5:13 AM 17.6 °F 10.7 °F 17.6 °F 100% 29.82 in 1.5 mi WNW 4.6 mph - N/A   Overcast
5:34 AM 17.6 °F 9.3 °F 17.6 °F 100% 29.82 in 0.5 mi West 5.8 mph - N/A Fog Light Freezing Fog
5:53 AM 17.6 °F 10.7 °F 17.6 °F 100% 29.82 in 0.5 mi WNW 4.6 mph - N/A Fog Light Freezing Fog
6:13 AM 17.6 °F - 17.6 °F 100% 29.82 in 0.5 mi Calm Calm - N/A Fog Light Freezing Fog
6:34 AM 17.6 °F - 17.6 °F 100% 29.82 in 0.8 mi Calm Calm - N/A   Overcast
6:53 AM 17.6 °F 12.3 °F 17.6 °F 100% 29.82 in 0.5 mi WNW 3.5 mph - N/A Fog Light Freezing Fog
7:13 AM 17.6 °F 12.3 °F 17.6 °F 100% 29.83 in 0.8 mi WNW 3.5 mph - N/A   Overcast
7:34 AM 17.6 °F - 17.6 °F 100% 29.83 in 0.8 mi Calm Calm - N/A   Overcast
7:53 AM 17.6 °F - 17.6 °F 100% 29.82 in 2.0 mi Calm Calm - N/A   Overcast
8:13 AM 17.6 °F - 17.6 °F 100% 29.82 in 3.0 mi Calm Calm - N/A   Overcast
8:34 AM 17.6 °F - 17.6 °F 100% 29.82 in 5.0 mi Calm Calm - N/A   Overcast
8:53 AM 19.4 °F - 17.6 °F 93% 29.82 in 7.0 mi Calm Calm - N/A   Overcast
9:13 AM 17.6 °F 12.3 °F 17.6 °F 100% 29.83 in 3.0 mi West 3.5 mph - N/A   Overcast
9:34 AM 17.6 °F 10.7 °F 17.6 °F 100% 29.83 in 3.0 mi West 4.6 mph - N/A   Overcast
9:53 AM 17.6 °F 9.3 °F 17.6 °F 100% 29.84 in 3.0 mi West 5.8 mph - N/A   Overcast
10:14 AM 17.6 °F 10.7 °F 17.6 °F 100% 29.84 in 3.0 mi West 4.6 mph - N/A   Overcast
10:33 AM 19.4 °F - 17.6 °F 93% 29.84 in 4.0 mi Calm Calm - N/A   Overcast
10:53 AM 19.4 °F 14.3 °F 17.6 °F 93% 29.84 in 4.0 mi West 3.5 mph - N/A   Mostly Cloudy
11:14 AM 19.4 °F 11.5 °F 17.6 °F 93% 29.84 in 5.0 mi West 5.8 mph - N/A   Mostly Cloudy
11:33 AM 21.2 °F 16.4 °F 17.6 °F 86% 29.84 in 7.0 mi West 3.5 mph - N/A   Overcast
12:14 PM 23.0 °F 15.8 °F 19.4 °F 86% 29.84 in 10.0 mi West 5.8 mph - N/A   Scattered Clouds
12:33 PM 23.0 °F - 19.4 °F 86% 29.83 in 10.0 mi Calm Calm - N/A   Clear
12:53 PM 24.8 °F - 19.4 °F 80% 29.83 in 10.0 mi Calm Calm - N/A   Clear
1:14 PM 24.8 °F 20.5 °F 19.4 °F 80% 29.82 in 10.0 mi West 3.5 mph - N/A   Clear
1:33 PM 24.8 °F - 19.4 °F 80% 29.82 in 10.0 mi Calm Calm - N/A   Clear
1:53 PM 24.8 °F - 19.4 °F 80% 29.82 in 10.0 mi Calm Calm - N/A   Clear
2:14 PM 24.8 °F 17.9 °F 19.4 °F 80% 29.82 in 10.0 mi West 5.8 mph - N/A   Clear
2:33 PM 24.8 °F 20.5 °F 19.4 °F 80% 29.82 in 10.0 mi West 3.5 mph - N/A   Clear
2:53 PM 24.8 °F 20.5 °F 19.4 °F 80% 29.82 in 10.0 mi West 3.5 mph - N/A   Clear
3:14 PM 24.8 °F 20.5 °F 19.4 °F 80% 29.82 in 10.0 mi West 3.5 mph - N/A   Clear
3:33 PM 24.8 °F - 19.4 °F 80% 29.82 in 10.0 mi Calm Calm - N/A   Clear
3:53 PM 24.8 °F - 19.4 °F 80% 29.82 in 10.0 mi Calm Calm - N/A   Clear
4:13 PM 24.8 °F - 19.4 °F 80% 29.82 in 10.0 mi Calm Calm - N/A   Clear
4:33 PM 23.0 °F - 19.4 °F 86% 29.82 in 10.0 mi Calm Calm - N/A   Clear
4:53 PM 21.2 °F - 17.6 °F 86% 29.83 in 10.0 mi Calm Calm - N/A   Clear
5:13 PM 21.2 °F - 17.6 °F 86% 29.83 in 10.0 mi Calm Calm - N/A   Clear
5:33 PM 19.4 °F 12.8 °F 17.6 °F 93% 29.84 in 10.0 mi West 4.6 mph - N/A   Clear
5:53 PM 19.4 °F 12.8 °F 15.8 °F 86% 29.84 in 10.0 mi West 4.6 mph - N/A   Clear
6:13 PM 17.6 °F - 15.8 °F 93% 29.84 in 10.0 mi Calm Calm - N/A   Clear
6:54 PM 15.8 °F - 15.8 °F 100% 29.85 in 10.0 mi Calm Calm - N/A   Clear
7:13 PM 14.0 °F - 12.2 °F 93% 29.86 in 7.0 mi Calm Calm - N/A   Clear
7:33 PM 15.8 °F - 14.0 °F 93% 29.86 in 7.0 mi Calm Calm - N/A   Clear
7:54 PM 14.0 °F - 12.2 °F 93% 29.86 in 1.5 mi Calm Calm - N/A   Clear
8:13 PM 8.6 °F - 6.8 °F 92% 29.87 in 0.5 mi Calm Calm - N/A Fog Light Freezing Fog
8:33 PM 10.4 °F - 8.6 °F 92% 29.87 in 0.5 mi Calm Calm - N/A Fog Light Freezing Fog
8:54 PM 12.2 °F - 12.2 °F 100% 29.87 in 1.8 mi Calm Calm - N/A   Clear
9:13 PM 10.4 °F - 10.4 °F 100% 29.88 in 0.5 mi Calm Calm - N/A Fog Light Freezing Fog
9:34 PM 8.6 °F - 6.8 °F 92% 29.89 in 4.0 mi Calm Calm - N/A   Clear
9:53 PM 6.8 °F - 3.2 °F 85% 29.89 in 1.0 mi Calm Calm - N/A   Clear
10:13 PM 5.0 °F - 3.2 °F 92% 29.90 in 0.2 mi Calm Calm - N/A Fog Light Freezing Fog
10:34 PM 6.8 °F - 3.2 °F 85% 29.90 in 0.2 mi Calm Calm - N/A Fog Light Freezing Fog
10:53 PM 6.8 °F - 6.8 °F 100% 29.90 in 0.5 mi Calm Calm - N/A Fog Light Freezing Fog
11:13 PM 1.4 °F - -0.4 °F 92% 29.90 in 0.5 mi Calm Calm - N/A Fog Light Freezing Fog
11:34 PM 3.2 °F - -0.4 °F 85% 29.90 in 0.2 mi Calm Calm - N/A Fog Light Freezing Fog
11:53 PM 3.2 °F - 1.4 °F 92% 29.90 in 0.2 mi Calm Calm - N/A Fog Light Freezing Fog